User: anonymous   Login
Location: Kapuskasing
(49.3803°N, 82.4001°W)
Time: 10:32:12
(UTC-04:00)
Language:

Envisat - Orbit

View from above orbital plane
View from above orbital plane
View from above satellite
View from above satellite

Ground track
Ground track

The orbit is defined by the following mean orbital elements,

1 27386U          26101.31317610 +.00000000 +00000-0 +40315-4 0 00008
2 27386  98.3779  54.1449 0001166  83.3267  89.8252 14.39048756    02
Epoch (UTC): 11 April 2026 07:30:58
Eccentricity: 0.0001166
inclination: 98.3779°
perigee height: 761 km
apogee height: 762 km
right ascension of ascending node: 54.1449°
argument of perigee: 83.3267°
revolutions per day: 14.39048756
mean anomaly at epoch: 89.8252°

The dashed part of the orbit path shows where the satellite is in the earth's shadow,  

DLR